Simultaneous Nadir Overpasses (SNOs) Predictions

Prediction of SNOs between NOAA-20 and METOP-C Satellite Orbit:

Table of predicted SNOs for the next 14.0 days since TLE Epoch: 6/25/2022
Index Date (NOAA-20) Time (NOAA-20) Lat,Lon (NOAA-20) SZA (NOAA-20 ) Date (METOP-C) Time (METOP-C) Lat,Lon (METOP-C) SZA (METOP-C ) Distance(km) Time Diff (sec)
1 06/25/2022 03:10:40 72.85, 124.03 49.62 06/25/2022 03:11:54 72.80, 124.15 49.54 6.86 74
2 06/25/2022 04:01:23 -72.80, -68.56 130.44 06/25/2022 04:02:37 -72.80, -68.53 130.46 1.09 74
3 06/25/2022 04:52:09 72.81, 98.75 49.57 06/25/2022 04:53:16 72.78, 98.77 49.53 3.13 67
4 06/25/2022 05:42:52 -72.76, -93.84 130.48 06/25/2022 05:43:59 -72.78, -93.91 130.48 3.05 67
5 06/25/2022 06:33:38 72.76, 73.46 49.53 06/25/2022 06:34:38 72.76, 73.39 49.51 2.61 60
6 06/25/2022 07:24:22 -72.77,-119.23 130.47 06/25/2022 07:25:21 -72.76,-119.30 130.49 2.61 59
7 06/25/2022 08:15:08 72.77, 48.08 49.54 06/25/2022 08:15:59 72.79, 48.11 49.54 2.31 51
8 06/25/2022 09:05:52 -72.77,-144.62 130.46 06/25/2022 09:06:42 -72.79,-144.57 130.47 1.88 50
9 06/25/2022 09:56:38 72.78, 22.69 49.55 06/25/2022 09:57:21 72.77, 22.73 49.52 1.69 43
10 06/25/2022 10:47:22 -72.78,-170.01 130.45 06/25/2022 10:48:04 -72.77,-169.96 130.48 2.40 42
11 06/25/2022 11:38:07 72.73, -2.60 49.50 06/25/2022 11:38:43 72.75, -2.66 49.51 2.45 36
12 06/25/2022 12:28:51 -72.74, 164.71 130.50 06/25/2022 12:29:26 -72.74, 164.66 130.50 1.83 35
13 06/25/2022 13:19:36 72.74, -27.99 49.51 06/25/2022 13:20:04 72.73, -28.04 49.49 2.45 28
14 06/25/2022 14:10:20 -72.75, 139.32 130.49 06/25/2022 14:10:47 -72.72, 139.28 130.51 2.78 27
15 06/25/2022 15:01:06 72.75, -53.38 49.52 06/25/2022 15:01:25 72.76, -53.32 49.52 2.07 19
16 06/25/2022 15:51:50 -72.75, 113.93 130.48 06/25/2022 15:52:08 -72.75, 114.00 130.48 2.18 18
17 06/25/2022 16:42:36 72.76, -78.76 49.53 06/25/2022 16:42:47 72.74, -78.70 49.50 3.07 11
18 06/25/2022 17:33:19 -72.71, 88.65 130.52 06/25/2022 17:33:30 -72.73, 88.62 130.50 2.94 11
19 06/25/2022 18:24:05 72.71,-104.05 49.48 06/25/2022 18:24:09 72.71,-104.08 49.49 1.22 4
20 06/25/2022 19:14:49 -72.72, 63.26 130.51 06/25/2022 19:14:52 -72.71, 63.23 130.52 0.94 3
21 06/25/2022 20:05:35 72.72,-129.44 49.49 06/25/2022 20:05:31 72.69,-129.47 49.47 3.02 4
22 06/25/2022 20:56:19 -72.72, 37.87 130.50 06/25/2022 20:56:14 -72.69, 37.85 130.53 3.50 5
23 06/25/2022 21:47:05 72.73,-154.83 49.50 06/25/2022 21:46:52 72.72,-154.75 49.50 2.69 13
24 06/25/2022 22:37:49 -72.73, 12.48 130.49 06/25/2022 22:37:35 -72.72, 12.57 130.50 3.10 14
25 06/25/2022 23:28:34 72.68, 179.89 49.46 06/25/2022 23:28:14 72.70, 179.87 49.48 2.29 20
26 06/26/2022 00:19:18 -72.69, -12.80 130.54 06/26/2022 00:18:57 -72.70, -12.81 130.52 1.67 21
27 06/26/2022 01:10:04 72.69, 154.50 49.47 06/26/2022 01:09:36 72.68, 154.49 49.47 0.99 28
28 06/26/2022 02:00:48 -72.69, -38.19 130.53 06/26/2022 02:00:19 -72.68, -38.19 130.54 1.44 29
29 06/26/2022 02:51:34 72.70, 129.11 49.48 06/26/2022 02:50:57 72.71, 129.21 49.50 3.66 37
30 06/26/2022 03:42:17 -72.65, -63.48 130.57 06/26/2022 03:41:41 -72.66, -63.58 130.55 3.48 36
31 06/26/2022 04:33:03 72.65, 103.83 49.43 06/26/2022 04:32:20 72.64, 103.72 49.44 3.75 43
32 06/26/2022 05:23:47 -72.66, -88.86 130.56 06/26/2022 05:23:02 -72.69, -88.85 130.52 3.67 45
33 06/26/2022 06:14:33 72.66, 78.44 49.44 06/26/2022 06:13:41 72.67, 78.44 49.47 1.06 52
34 06/26/2022 07:05:17 -72.66,-114.25 130.55 06/26/2022 07:04:24 -72.67,-114.24 130.54 0.78 53
35 06/26/2022 07:56:03 72.67, 53.05 49.45 06/26/2022 07:55:03 72.65, 53.06 49.45 2.14 60
36 06/26/2022 08:46:47 -72.67,-139.64 130.54 06/26/2022 08:45:46 -72.65,-139.62 130.55 2.65 61
37 06/26/2022 09:37:32 72.62, 27.76 49.41 06/26/2022 09:36:25 72.63, 27.68 49.43 2.85 67
38 06/26/2022 10:28:16 -72.63,-164.93 130.59 06/26/2022 10:27:08 -72.63,-165.00 130.57 2.46 68
39 06/26/2022 11:19:01 72.58, 2.48 49.36 06/26/2022 11:17:47 72.61, 2.30 49.42 6.74 74
40 06/26/2022 12:09:45 -72.58, 169.79 130.63 06/26/2022 12:08:31 -72.55, 169.51 130.63 9.63 74
41 06/26/2022 13:00:25 72.28, -22.30 49.04 06/26/2022 12:59:14 72.33, -23.60 49.18 44.10 71
42 06/26/2022 13:51:09 -72.29, 145.01 130.96 06/26/2022 13:49:58 -72.28, 143.63 130.87 46.67 71
43 06/26/2022 14:41:49 71.98, -47.10 48.72 06/26/2022 14:40:42 72.00, -49.57 48.90 84.98 67
44 06/26/2022 15:32:33 -71.99, 120.21 131.28 06/26/2022 15:31:25 -72.00, 117.76 131.10 84.26 68



Historial Predications of SNOs between NOAA-20 and METOP-C
